Back to catalog

COSMOS 2499 DEB

LostPO
NORAD 49934·DEBRIS·🇷🇺 Russia

Launched May 23, 2014 from Plesetsk Cosmodrome

Loading…

Next Passes (next 24 hours)

TLE

StaleSource: Space-Track

Epoch: Jun 26, 2023, 23:14 UTC

1 49934U 14028R   23177.96811375  .00000739  00000-0  22098-2 0  9996
2 49934  82.5076 259.4437 0233700 349.1217  10.4887 12.97571055 65983

Track COSMOS 2499 DEB in real time with AllMySat

Download on the App Store